Theta_e
351 353 351 339 338 331 332 342 345 343 340 340 340 340 341 341 340 339 338 338 338 338 337 336 339 340 339 338 340 340 340 341 342 343 341 340 338 339 340 339 338 336 336
352 354 342 340 338 340 343 345 342 335 335 337 339 338 339 340 339 339 340 339 337 338 339 338 337 337 337 337 337 337 338 339 340 341 342 341 339 339 339 339 337 335 335
354 350 342 340 338 342 344 343 340 335 334 335 337 338 338 338 338 339 338 336 338 339 337 336 336 339 340 339 339 339 340 340 341 341 341 341 339 338 337 337 336 336 335
353 344 342 337 337 346 343 343 340 338 335 334 335 337 337 337 337 337 337 336 335 336 337 338 337 337 335 334 336 338 341 341 342 341 341 340 339 337 337 337 337 335 335
347 344 340 336 341 347 344 344 342 340 337 335 336 337 336 336 337 336 335 335 337 334 335 335 335 333 330 329 332 340 340 340 340 342 340 339 339 338 336 337 336 335 334
346 343 341 337 340 343 344 344 342 342 339 336 336 336 335 335 335 336 334 329 330 333 331 332 330 327 326 324 331 339 338 338 339 339 338 338 337 337 337 337 335 335 334
347 344 339 337 334 341 345 344 342 343 341 340 337 336 335 333 329 328 330 330 332 331 329 332 331 328 326 324 327 334 337 336 335 337 338 338 338 336 336 336 334 334 334
351 350 348 345 344 343 346 346 344 345 344 343 342 338 337 336 335 330 329 332 331 330 331 331 331 330 333 331 327 328 334 334 331 333 334 334 335 335 335 335 333 334 332
351 352 350 349 348 348 348 348 347 345 344 344 343 342 340 339 337 336 333 332 334 334 333 331 334 333 334 333 332 327 327 328 329 330 332 332 330 332 333 333 333 332 332
353 352 352 352 351 351 349 349 347 346 346 346 344 344 342 343 340 339 337 336 338 337 335 333 333 335 334 334 333 330 330 332 330 329 329 327 328 330 329 331 331 332 332
348 349 348 347 347 347 347 346 343 342 343 344 344 344 339 338 341 342 339 338 337 337 337 334 330 333 334 334 332 331 329 333 331 330 329 329 328 327 328 325 326 328 329
339 339 339 339 339 338 337 335 335 337 337 335 335 337 337 336 338 336 338 339 339 338 338 337 332 331 334 334 333 331 331 329 332 331 330 329 327 326 325 325 325 325 327
329 329 330 330 330 331 335 338 339 340 337 336 339 339 338 334 333 333 334 338 339 338 338 338 337 329 329 333 335 333 331 328 330 330 329 329 328 327 327 327 326 325 325
326 326 327 328 329 331 332 333 335 335 339 339 337 339 336 334 332 331 333 336 337 338 338 338 336 330 328 333 334 334 333 329 327 329 329 329 329 329 328 328 327 328 328
324 324 324 325 326 326 327 331 332 333 334 337 337 339 335 335 336 334 334 335 336 335 337 337 335 333 332 331 330 332 332 332 327 328 328 328 328 328 327 327 326 325 327
323 324 324 325 324 324 324 327 331 332 333 334 337 338 333 333 335 334 334 333 331 336 336 336 334 330 330 331 331 332 331 331 332 327 327 328 331 330 329 325 326 322 322
323 323 323 323 325 325 325 328 330 331 332 333 334 336 334 331 334 336 337 336 336 336 336 333 331 329 330 331 331 332 332 332 331 328 329 330 327 326 328 327 327 326 326
322 323 323 322 324 325 324 326 326 327 329 330 330 331 331 335 336 336 331 330 330 333 332 330 332 333 331 332 331 331 330 330 329 329 328 328 327 326 325 325 326 326 325
321 319 320 321 318 322 326 324 327 325 325 327 326 327 327 329 334 334 331 332 333 333 333 332 331 332 331 329 329 329 328 325 327 327 326 326 326 325 324 324 324 323 322
319 319 318 318 319 317 320 322 325 325 325 325 325 325 324 325 326 327 328 330 330 331 330 328 328 328 324 322 322 323 326 326 325 325 324 323 322 320 320 320 319 318 316
318 318 318 318 318 318 316 322 324 325 325 324 325 326 326 326 325 325 324 324 325 327 325 322 322 324 323 324 323 324 324 320 318 317 317 317 317 317 316 316 315 315 314
317 316 317 317 317 318 316 320 324 325 325 324 324 325 324 324 324 326 326 326 326 324 321 320 321 320 319 318 318 318 318 318 318 317 316 315 316 315 314 312 310 310 310
317 319 320 319 318 318 316 321 324 326 324 324 324 325 324 325 325 326 324 323 323 324 323 322 322 321 320 320 319 319 318 316 314 312 309 308 308 308 307 306 306 306 306
319 322 322 320 320 318 321 324 324 326 325 324 324 324 324 323 320 319 321 321 319 321 322 322 322 320 319 319 317 311 309 307 305 303 303 302 303 303 303 305 307 307 307
318 322 322 322 321 320 322 322 324 325 323 323 323 324 323 323 322 321 321 320 319 318 318 317 317 314 310 310 310 309 308 305 302 302 302 302 302 302 302 302 302 303 302
320 320 321 323 323 323 323 324 325 323 323 322 321 321 322 320 319 318 316 315 313 312 311 310 310 310 310 309 308 304 302 301 301 301 301 300 300 300 300 299 299 299 299
Wind_Speed
27 23 14 15 12 17 16 12 12 9 11 9 8 8 10 11 12 13 14 13 14 16 17 16 14 14 15 16 17 18 21 22 23 23 20 15 12 12 14 11 9 6 4
25 19 15 16 14 15 16 14 11 10 10 10 11 11 12 12 13 13 12 12 12 12 11 12 12 13 14 15 17 20 21 22 24 24 22 17 15 14 16 13 9 7 6
24 18 18 17 16 13 13 12 10 9 8 10 11 11 13 14 13 13 12 11 12 10 10 10 10 11 12 13 15 18 19 20 22 23 22 20 15 17 16 14 10 7 7
21 21 20 16 14 12 12 12 10 8 8 8 9 11 13 14 14 13 12 10 9 11 10 10 10 11 12 12 14 15 15 16 17 19 20 17 15 15 15 15 12 10 8
24 26 21 17 13 14 14 12 11 8 8 8 10 12 13 14 14 15 14 12 11 11 11 10 10 11 12 13 11 9 9 9 10 14 17 18 19 20 18 19 14 11 10
27 24 21 18 15 14 14 13 13 11 10 11 12 13 14 15 15 16 16 14 13 12 10 10 9 8 9 10 10 8 7 6 5 6 12 15 17 19 19 19 15 13 11
21 17 21 21 19 18 16 15 16 16 14 13 12 14 16 15 15 16 15 14 13 12 11 10 9 8 6 7 9 9 9 8 5 5 7 10 13 15 16 17 14 13 11
18 15 16 18 21 19 18 18 19 18 18 17 15 16 16 16 16 16 17 17 14 13 11 10 10 10 9 7 7 8 10 9 7 4 4 4 6 10 12 12 11 11 9
9 10 12 16 18 18 18 18 19 21 21 22 21 20 20 19 19 19 20 22 20 16 13 13 11 10 10 9 7 8 8 8 8 8 8 9 7 8 10 15 17 15 16
10 11 13 12 13 14 16 18 19 22 24 26 26 24 25 27 25 25 24 24 23 21 18 16 15 12 11 11 8 8 8 5 5 7 9 6 6 8 10 11 13 17 17
6 7 9 10 10 12 13 14 16 19 22 27 30 32 32 30 33 34 32 30 28 25 22 19 17 15 13 13 11 10 8 9 7 7 8 7 6 8 8 6 7 12 14
2 6 9 10 12 13 15 18 23 25 26 28 28 29 33 38 41 46 38 36 31 27 25 20 19 18 16 16 14 13 12 13 13 11 10 8 5 4 5 5 5 4 9
7 9 11 11 13 16 17 19 21 24 27 31 29 30 35 33 32 37 41 39 32 30 26 24 23 23 21 19 19 17 17 17 18 16 13 11 8 8 8 7 6 6 6
16 16 16 14 14 13 16 21 23 23 21 25 25 26 27 17 17 26 32 24 30 29 29 27 25 23 21 19 17 21 21 20 20 18 15 13 14 15 14 13 13 12 13
16 18 19 19 18 18 17 18 17 16 20 21 21 18 16 15 6 11 28 22 23 25 29 29 26 26 24 24 23 23 22 26 24 21 20 19 18 17 17 17 15 14 16
15 16 17 18 17 20 20 18 14 13 14 13 14 16 13 11 14 20 22 25 23 24 24 26 30 26 22 25 26 24 24 22 26 23 22 22 19 16 15 15 16 16 18
11 12 14 17 20 19 22 22 17 13 11 12 9 12 15 12 7 7 8 13 15 18 21 20 22 22 29 27 26 29 28 26 25 23 22 18 10 9 13 13 11 14 13
11 12 13 15 17 17 19 17 18 18 14 12 11 12 9 14 19 19 16 16 16 21 24 23 29 30 30 34 23 16 16 15 10 11 10 10 7 8 10 11 13 12 14
13 13 13 13 13 14 15 15 15 15 15 15 14 16 18 14 6 15 15 15 21 22 24 27 33 20 14 15 17 17 13 10 10 10 8 8 8 6 8 10 10 9 7
17 15 15 15 14 13 13 14 12 12 14 14 15 16 16 14 12 11 2 7 11 13 14 13 13 16 18 14 11 8 9 11 10 8 8 7 6 6 5 5 5 5 5
18 16 15 16 14 14 12 13 14 11 10 7 10 12 13 14 14 12 9 8 8 11 15 16 15 12 13 11 10 10 11 11 11 10 9 6 5 5 5 4 4 4 2
15 15 14 15 12 11 11 11 12 8 8 3 8 10 9 8 7 8 6 5 12 15 15 14 14 14 15 14 16 16 15 13 11 9 7 4 5 5 4 3 2 3 3
11 12 13 11 8 6 8 9 7 7 3 1 6 9 10 10 10 8 21 19 14 14 14 11 13 14 13 12 12 11 10 9 8 6 4 5 6 5 3 3 2 2 2
12 15 13 8 4 3 7 7 5 8 5 3 3 7 12 16 17 15 14 14 11 10 9 12 11 10 10 10 9 8 6 5 5 3 3 3 4 4 4 4 4 4 4
13 15 12 8 6 6 7 7 6 9 7 3 5 10 12 13 12 11 9 11 11 10 10 9 8 10 10 9 8 5 4 3 4 4 3 2 2 3 3 4 5 6 6
11 12 11 8 5 4 4 3 4 9 8 8 7 9 10 10 7 8 10 9 10 11 13 13 12 9 6 5 4 4 3 4 4 3 3 2 2 2 3 3 5 6 8
Wind_Direction
208 210 224 203 205 202 209 239 240 241 243 241 223 209 200 199 209 210 214 221 231 238 242 240 241 245 250 254 256 257 257 254 255 260 260 258 252 238 235 244 247 230 217
208 212 201 202 201 213 228 230 233 231 224 230 220 199 195 196 200 203 213 227 227 223 224 232 242 248 253 255 257 260 260 258 256 252 257 251 243 231 231 231 231 225 229
212 210 201 204 212 224 223 220 231 231 221 218 221 212 205 208 212 210 216 219 217 218 225 241 246 248 253 260 263 267 266 261 252 252 251 246 240 227 219 221 222 228 228
212 201 202 202 217 227 225 221 226 242 237 220 214 214 220 221 207 208 216 213 216 219 223 236 248 260 265 269 264 269 270 260 249 244 243 236 232 216 222 224 236 239 229
202 207 197 197 212 224 221 227 226 236 238 229 222 219 218 217 224 216 206 216 242 225 228 228 245 264 267 266 267 265 274 275 249 239 238 237 226 217 218 226 228 231 229
200 207 201 205 215 227 226 226 229 230 234 235 232 228 227 229 233 238 237 227 220 229 232 225 231 236 261 258 252 254 260 267 257 246 230 229 225 219 222 226 224 229 232
195 203 212 221 239 238 235 232 231 234 235 242 241 243 241 239 235 233 235 231 221 219 213 219 232 222 225 240 244 241 242 246 248 233 243 238 225 224 224 224 229 234 239
199 206 218 234 245 242 242 242 241 241 247 250 248 247 248 248 245 241 233 229 226 223 222 219 228 231 229 223 234 234 238 247 248 231 200 193 192 208 224 234 239 238 247
184 211 231 238 247 251 252 254 257 257 256 259 257 256 254 253 247 243 236 229 231 233 230 225 219 231 234 220 226 232 226 235 238 225 214 220 202 204 210 209 215 221 223
204 210 220 235 247 249 255 250 253 259 260 262 262 258 259 255 249 245 239 237 240 235 233 230 228 225 228 238 235 228 221 230 234 232 233 218 209 221 219 221 221 224 227
212 224 242 246 250 260 259 265 261 261 267 266 267 267 267 272 255 244 239 238 239 239 235 234 231 227 230 238 232 233 223 222 226 217 214 218 228 230 241 260 221 220 230
306 284 281 288 291 284 281 272 273 276 273 270 277 278 281 281 269 251 241 234 234 234 237 234 232 231 232 232 232 232 231 225 221 224 226 225 218 199 191 194 195 201 220
11 355 342 329 308 297 282 273 270 267 271 279 287 290 295 294 278 258 233 230 226 230 231 233 234 227 230 232 235 230 230 229 225 227 231 226 215 201 206 209 211 219 234
33 28 20 13 2 335 302 282 278 279 286 285 291 294 299 308 292 250 218 224 229 228 230 232 233 228 224 227 229 232 233 230 225 231 232 227 221 221 225 233 240 241 241
37 32 24 15 6 360 351 333 316 297 289 288 279 285 283 272 299 216 212 234 236 239 230 228 224 220 229 235 238 237 234 235 228 225 226 228 230 234 241 240 241 248 250
31 30 24 16 12 10 3 351 345 332 319 301 267 263 275 287 256 251 244 240 227 228 219 228 220 224 241 240 240 237 235 236 235 225 232 237 235 237 242 244 246 246 258
15 12 10 358 360 358 9 13 358 349 334 337 329 277 280 259 260 262 225 210 215 209 216 225 244 242 253 253 248 257 239 233 228 232 237 218 214 245 241 241 246 243 262
345 345 341 345 351 353 354 5 12 8 1 1 342 334 311 260 253 248 248 243 223 226 237 238 244 251 249 251 231 230 202 209 215 218 213 219 214 224 247 252 242 247 249
326 319 311 315 325 338 347 348 352 357 15 31 28 28 25 12 282 238 234 236 239 237 230 259 250 242 225 229 200 193 176 191 206 222 226 221 215 215 216 224 216 222 227
309 304 304 302 305 312 320 329 329 348 10 23 31 37 41 37 40 56 75 256 251 227 160 125 113 128 129 126 142 161 185 168 161 180 177 179 175 167 167 184 199 200 197
302 302 300 296 298 298 298 312 315 329 354 6 22 23 31 38 34 49 52 77 106 105 129 129 131 135 123 129 143 155 149 130 127 124 122 126 140 151 159 169 186 210 178
303 306 311 305 294 288 287 299 311 306 337 359 7 3 7 11 28 48 67 56 83 111 108 113 115 115 117 123 129 134 135 136 142 152 156 166 172 171 160 158 171 151 143
336 334 319 308 299 291 296 301 288 270 199 82 28 40 56 60 56 80 90 81 92 109 108 110 125 126 125 133 136 138 143 145 147 147 147 150 154 154 154 173 183 192 212
348 343 339 337 329 316 299 304 270 214 194 246 46 83 92 94 89 75 71 82 90 105 122 134 139 140 139 142 142 136 134 136 137 151 162 164 168 177 189 205 221 240 271
354 5 2 358 358 341 315 301 269 224 189 179 122 120 122 115 109 107 116 126 134 142 146 154 153 146 141 141 141 145 162 184 166 166 173 173 191 201 217 235 250 263 279
11 23 19 25 17 356 14 46 122 140 135 125 131 134 129 117 108 110 116 124 131 130 131 136 144 151 163 175 173 168 162 157 136 147 159 180 209 225 246 271 292 296 295